Gauley Below the Meadow [ USA-WVR ]

Edit Gauge

Current Conditions

Reading of "n/a" = frozen gauge or gauge error.
Reading Trend Type Updated
1942 cfs -874 cfs/hr Flow 01h47m

Station Description

AW Gauge ID: 43451
Source: virtual
Station: 6192
Enabled yes
Description:Summersville Gauley + the Meadow.
Calculation:$flow=$gauge[8515]->getValue(GMETRIC_FLOW,120*60)+$gauge[51285]->getValue(GMETRIC_FLOW,60*120);
Data is courtesy of AW's Stream Team program. This data is calculated based on other gauges and information provided by the Stream Team. This data, and any river data, should be used with caution.

Information

Flow

Gauge History

Times listed in GMT 24h, ET and PT hours provided for convenience Graphs in GMT. Readings of "n/a" constitute a frozen gauge or gauge error.
Reading Updated (GMT) Eastern Pacific Comment
1941.79 10/22/2017 19:12:00 Oct 22 03:12 pm Oct 22 12:12 pm
2812.22 10/22/2017 18:12:16 Oct 22 02:12 pm Oct 22 11:12 am
2813.02 10/22/2017 17:12:32 Oct 22 01:12 pm Oct 22 10:12 am
2813.02 10/22/2017 16:12:48 Oct 22 12:12 pm Oct 22 9:12 am
2803.23 10/22/2017 15:13:04 Oct 22 11:13 am Oct 22 8:13 am
2813.02 10/22/2017 14:11:12 Oct 22 10:11 am Oct 22 7:11 am
2822.83 10/22/2017 13:11:28 Oct 22 09:11 am Oct 22 6:11 am
2813.02 10/22/2017 12:11:44 Oct 22 08:11 am Oct 22 5:11 am
2773.95 10/22/2017 11:12:00 Oct 22 07:12 am Oct 22 4:12 am
1900.36 10/22/2017 10:12:16 Oct 22 06:12 am Oct 22 3:12 am
1222.56 10/22/2017 09:12:32 Oct 22 05:12 am Oct 22 2:12 am
1222.56 10/22/2017 08:12:48 Oct 22 04:12 am Oct 22 1:12 am
706.75 10/22/2017 07:13:04 Oct 22 03:13 am Oct 22 12:13 am
701.84 10/22/2017 05:11:28 Oct 22 01:11 am Oct 21 10:11 pm
697.75 10/22/2017 04:11:44 Oct 22 12:11 am Oct 21 9:11 pm
702.64 10/22/2017 01:12:32 Oct 21 09:12 pm Oct 21 6:12 pm
702.64 10/22/2017 00:12:48 Oct 21 08:12 pm Oct 21 5:12 pm
702.64 10/21/2017 23:13:04 Oct 21 07:13 pm Oct 21 4:13 pm
899.02 10/21/2017 22:11:12 Oct 21 06:11 pm Oct 21 3:11 pm
1277.58 10/21/2017 21:11:28 Oct 21 05:11 pm Oct 21 2:11 pm
1555.58 10/21/2017 20:11:44 Oct 21 04:11 pm Oct 21 1:11 pm
1951.72 10/21/2017 19:12:00 Oct 21 03:12 pm Oct 21 12:12 pm
2814.62 10/21/2017 18:12:16 Oct 21 02:12 pm Oct 21 11:12 am
2824.43 10/21/2017 17:12:32 Oct 21 01:12 pm Oct 21 10:12 am
2824.43 10/21/2017 16:12:48 Oct 21 12:12 pm Oct 21 9:12 am
2814.62 10/21/2017 15:13:04 Oct 21 11:13 am Oct 21 8:13 am
2835.05 10/21/2017 14:11:12 Oct 21 10:11 am Oct 21 7:11 am
2824.43 10/21/2017 13:11:28 Oct 21 09:11 am Oct 21 6:11 am
2815.42 10/21/2017 12:11:44 Oct 21 08:11 am Oct 21 5:11 am
2795.06 10/21/2017 11:12:00 Oct 21 07:12 am Oct 21 4:12 am
1993.64 10/21/2017 10:12:16 Oct 21 06:12 am Oct 21 3:12 am
1152.81 10/21/2017 09:12:32 Oct 21 05:12 am Oct 21 2:12 am
1153.61 10/21/2017 08:12:48 Oct 21 04:12 am Oct 21 1:12 am
694.46 10/21/2017 05:11:28 Oct 21 01:11 am Oct 20 10:11 pm
694.46 10/21/2017 04:11:44 Oct 21 12:11 am Oct 20 9:11 pm
704.24 10/21/2017 03:12:00 Oct 20 11:12 pm Oct 20 8:12 pm
695.26 10/21/2017 02:12:16 Oct 20 10:12 pm Oct 20 7:12 pm
695.26 10/21/2017 01:12:32 Oct 20 09:12 pm Oct 20 6:12 pm
695.26 10/21/2017 00:12:48 Oct 20 08:12 pm Oct 20 5:12 pm
705.04 10/20/2017 23:13:04 Oct 20 07:13 pm Oct 20 4:13 pm
700.95 10/20/2017 22:11:12 Oct 20 06:11 pm Oct 20 3:11 pm
705.84 10/20/2017 21:11:28 Oct 20 05:11 pm Oct 20 2:11 pm
696.06 10/20/2017 20:11:44 Oct 20 04:11 pm Oct 20 1:11 pm
701.85 10/20/2017 19:12:00 Oct 20 03:12 pm Oct 20 12:12 pm
701.85 10/20/2017 18:12:16 Oct 20 02:12 pm Oct 20 11:12 am
701.85 10/20/2017 17:12:32 Oct 20 01:12 pm Oct 20 10:12 am
701.85 10/20/2017 16:12:48 Oct 20 12:12 pm Oct 20 9:12 am
706.74 10/20/2017 15:13:04 Oct 20 11:13 am Oct 20 8:13 am
707.54 10/20/2017 14:11:12 Oct 20 10:11 am Oct 20 7:11 am
703.54 10/20/2017 13:11:28 Oct 20 09:11 am Oct 20 6:11 am
708.44 10/20/2017 11:12:00 Oct 20 07:12 am Oct 20 4:12 am
708.44 10/20/2017 10:12:16 Oct 20 06:12 am Oct 20 3:12 am
703.54 10/20/2017 09:12:32 Oct 20 05:12 am Oct 20 2:12 am
703.54 10/20/2017 08:12:48 Oct 20 04:12 am Oct 20 1:12 am
703.54 10/20/2017 07:13:04 Oct 20 03:13 am Oct 20 12:13 am
704.35 10/20/2017 06:11:12 Oct 20 02:11 am Oct 19 11:11 pm
699.46 10/20/2017 05:11:28 Oct 20 01:11 am Oct 19 10:11 pm
704.35 10/20/2017 03:12:00 Oct 19 11:12 pm Oct 19 8:12 pm
704.35 10/20/2017 02:12:16 Oct 19 10:12 pm Oct 19 7:12 pm
710.14 10/20/2017 01:12:32 Oct 19 09:12 pm Oct 19 6:12 pm
710.14 10/20/2017 00:12:48 Oct 19 08:12 pm Oct 19 5:12 pm
705.25 10/19/2017 23:13:04 Oct 19 07:13 pm Oct 19 4:13 pm
706.14 10/19/2017 22:11:12 Oct 19 06:11 pm Oct 19 3:11 pm
706.14 10/19/2017 21:11:28 Oct 19 05:11 pm Oct 19 2:11 pm
706.14 10/19/2017 20:11:44 Oct 19 04:11 pm Oct 19 1:11 pm
706.14 10/19/2017 19:12:00 Oct 19 03:12 pm Oct 19 12:12 pm
702.16 10/19/2017 18:12:16 Oct 19 02:12 pm Oct 19 11:12 am
702.16 10/19/2017 17:12:32 Oct 19 01:12 pm Oct 19 10:12 am
703.16 10/19/2017 16:12:48 Oct 19 12:12 pm Oct 19 9:12 am
708.04 10/19/2017 15:13:04 Oct 19 11:13 am Oct 19 8:13 am
717.85 10/19/2017 14:11:12 Oct 19 10:11 am Oct 19 7:11 am
708.04 10/19/2017 13:11:28 Oct 19 09:11 am Oct 19 6:11 am
712.94 10/19/2017 12:11:44 Oct 19 08:11 am Oct 19 5:11 am
708.95 10/19/2017 11:12:00 Oct 19 07:12 am Oct 19 4:12 am
713.84 10/19/2017 10:12:16 Oct 19 06:12 am Oct 19 3:12 am
708.95 10/19/2017 09:12:32 Oct 19 05:12 am Oct 19 2:12 am
709.85 10/19/2017 08:12:48 Oct 19 04:12 am Oct 19 1:12 am
709.85 10/19/2017 07:13:04 Oct 19 03:13 am Oct 19 12:13 am
709.85 10/19/2017 05:11:28 Oct 19 01:11 am Oct 18 10:11 pm
715.74 10/19/2017 04:11:44 Oct 19 12:11 am Oct 18 9:11 pm
715.74 10/19/2017 03:12:00 Oct 18 11:12 pm Oct 18 8:12 pm
710.85 10/19/2017 01:12:32 Oct 18 09:12 pm Oct 18 6:12 pm
710.85 10/19/2017 00:12:48 Oct 18 08:12 pm Oct 18 5:12 pm
710.85 10/18/2017 23:13:04 Oct 18 07:13 pm Oct 18 4:13 pm
709.85 10/18/2017 22:11:12 Oct 18 06:11 pm Oct 18 3:11 pm
709.85 10/18/2017 21:11:28 Oct 18 05:11 pm Oct 18 2:11 pm
713.84 10/18/2017 20:11:44 Oct 18 04:11 pm Oct 18 1:11 pm
708.95 10/18/2017 19:12:00 Oct 18 03:12 pm Oct 18 12:12 pm
718.75 10/18/2017 18:12:16 Oct 18 02:12 pm Oct 18 11:12 am
712.94 10/18/2017 17:12:32 Oct 18 01:12 pm Oct 18 10:12 am
708.04 10/18/2017 15:13:04 Oct 18 11:13 am Oct 18 8:13 am
711.94 10/18/2017 14:11:12 Oct 18 10:11 am Oct 18 7:11 am
711.94 10/18/2017 13:11:28 Oct 18 09:11 am Oct 18 6:11 am
711.94 10/18/2017 12:11:44 Oct 18 08:11 am Oct 18 5:11 am
711.94 10/18/2017 11:12:00 Oct 18 07:12 am Oct 18 4:12 am
716.85 10/18/2017 10:12:16 Oct 18 06:12 am Oct 18 3:12 am
707.04 10/18/2017 09:12:32 Oct 18 05:12 am Oct 18 2:12 am
706.14 10/18/2017 08:12:48 Oct 18 04:12 am Oct 18 1:12 am
706.14 10/18/2017 07:13:04 Oct 18 03:13 am Oct 18 12:13 am
711.04 10/18/2017 06:11:12 Oct 18 02:11 am Oct 17 11:11 pm
700.36 10/18/2017 05:11:28 Oct 18 01:11 am Oct 17 10:11 pm
705.25 10/18/2017 04:11:44 Oct 18 12:11 am Oct 17 9:11 pm
695.50 10/18/2017 03:12:00 Oct 17 11:12 pm Oct 17 8:12 pm
709.24 10/18/2017 02:12:16 Oct 17 10:12 pm Oct 17 7:12 pm
699.46 10/18/2017 01:12:32 Oct 17 09:12 pm Oct 17 6:12 pm
699.46 10/18/2017 00:12:48 Oct 17 08:12 pm Oct 17 5:12 pm
699.46 10/17/2017 23:13:04 Oct 17 07:13 pm Oct 17 4:13 pm
699.46 10/17/2017 22:11:12 Oct 17 06:11 pm Oct 17 3:11 pm
704.35 10/17/2017 21:11:28 Oct 17 05:11 pm Oct 17 2:11 pm
704.35 10/17/2017 20:11:44 Oct 17 04:11 pm Oct 17 1:11 pm
694.60 10/17/2017 19:12:00 Oct 17 03:12 pm Oct 17 12:12 pm
704.35 10/17/2017 18:12:16 Oct 17 02:12 pm Oct 17 11:12 am
704.35 10/17/2017 17:12:32 Oct 17 01:12 pm Oct 17 10:12 am
704.35 10/17/2017 16:12:48 Oct 17 12:12 pm Oct 17 9:12 am
704.35 10/17/2017 15:13:04 Oct 17 11:13 am Oct 17 8:13 am
705.25 10/17/2017 14:11:12 Oct 17 10:11 am Oct 17 7:11 am
706.14 10/17/2017 13:11:28 Oct 17 09:11 am Oct 17 6:11 am
696.40 10/17/2017 12:11:44 Oct 17 08:11 am Oct 17 5:11 am
706.14 10/17/2017 11:12:00 Oct 17 07:12 am Oct 17 4:12 am
706.14 10/17/2017 10:12:16 Oct 17 06:12 am Oct 17 3:12 am
701.26 10/17/2017 09:12:32 Oct 17 05:12 am Oct 17 2:12 am
702.16 10/17/2017 08:12:48 Oct 17 04:12 am Oct 17 1:12 am
707.04 10/17/2017 07:13:04 Oct 17 03:13 am Oct 17 12:13 am
711.94 10/17/2017 06:11:12 Oct 17 02:11 am Oct 16 11:11 pm
711.94 10/17/2017 05:11:28 Oct 17 01:11 am Oct 16 10:11 pm
707.04 10/17/2017 04:11:44 Oct 17 12:11 am Oct 16 9:11 pm
702.16 10/17/2017 03:12:00 Oct 16 11:12 pm Oct 16 8:12 pm
708.04 10/17/2017 02:12:16 Oct 16 10:12 pm Oct 16 7:12 pm
708.04 10/17/2017 01:12:32 Oct 16 09:12 pm Oct 16 6:12 pm
708.95 10/17/2017 00:12:48 Oct 16 08:12 pm Oct 16 5:12 pm
713.84 10/16/2017 23:13:04 Oct 16 07:13 pm Oct 16 4:13 pm
708.95 10/16/2017 22:11:12 Oct 16 06:11 pm Oct 16 3:11 pm
709.85 10/16/2017 21:11:28 Oct 16 05:11 pm Oct 16 2:11 pm
709.85 10/16/2017 20:11:44 Oct 16 04:11 pm Oct 16 1:11 pm
710.85 10/16/2017 19:12:00 Oct 16 03:12 pm Oct 16 12:12 pm
710.85 10/16/2017 18:12:16 Oct 16 02:12 pm Oct 16 11:12 am
711.75 10/16/2017 17:12:32 Oct 16 01:12 pm Oct 16 10:12 am
711.75 10/16/2017 16:12:48 Oct 16 12:12 pm Oct 16 9:12 am
716.64 10/16/2017 15:13:04 Oct 16 11:13 am Oct 16 8:13 am
712.75 10/16/2017 14:11:12 Oct 16 10:11 am Oct 16 7:11 am
713.75 10/16/2017 13:11:28 Oct 16 09:11 am Oct 16 6:11 am
713.75 10/16/2017 12:11:44 Oct 16 08:11 am Oct 16 5:11 am
718.64 10/16/2017 11:12:00 Oct 16 07:12 am Oct 16 4:12 am
714.75 10/16/2017 10:12:16 Oct 16 06:12 am Oct 16 3:12 am
710.86 10/16/2017 08:12:48 Oct 16 04:12 am Oct 16 1:12 am
715.75 10/16/2017 07:13:04 Oct 16 03:13 am Oct 16 12:13 am
715.75 10/16/2017 06:11:12 Oct 16 02:11 am Oct 15 11:11 pm
711.96 10/16/2017 05:11:28 Oct 16 01:11 am Oct 15 10:11 pm
696.30 10/16/2017 04:11:44 Oct 16 12:11 am Oct 15 9:11 pm
695.30 10/16/2017 03:12:00 Oct 15 11:12 pm Oct 15 8:12 pm
694.30 10/16/2017 02:12:16 Oct 15 10:12 pm Oct 15 7:12 pm
697.14 10/16/2017 01:12:32 Oct 15 09:12 pm Oct 15 6:12 pm
695.24 10/16/2017 00:12:48 Oct 15 08:12 pm Oct 15 5:12 pm
685.58 10/15/2017 23:13:04 Oct 15 07:13 pm Oct 15 4:13 pm
1242.07 10/15/2017 22:11:12 Oct 15 06:11 pm Oct 15 3:11 pm
1242.07 10/15/2017 21:11:28 Oct 15 05:11 pm Oct 15 2:11 pm
1575.38 10/15/2017 20:11:44 Oct 15 04:11 pm Oct 15 1:11 pm
1980.74 10/15/2017 19:12:00 Oct 15 03:12 pm Oct 15 12:12 pm
2836.73 10/15/2017 18:12:16 Oct 15 02:12 pm Oct 15 11:12 am
2837.63 10/15/2017 17:12:32 Oct 15 01:12 pm Oct 15 10:12 am
2837.63 10/15/2017 16:12:48 Oct 15 12:12 pm Oct 15 9:12 am
2827.82 10/15/2017 15:13:04 Oct 15 11:13 am Oct 15 8:13 am
2818.03 10/15/2017 14:11:12 Oct 15 10:11 am Oct 15 7:11 am
2828.82 10/15/2017 13:11:28 Oct 15 09:11 am Oct 15 6:11 am
2838.63 10/15/2017 12:11:44 Oct 15 08:11 am Oct 15 5:11 am
2627.32 10/15/2017 11:12:00 Oct 15 07:12 am Oct 15 4:12 am
1925.41 10/15/2017 10:12:16 Oct 15 06:12 am Oct 15 3:12 am
1259.24 10/15/2017 09:12:32 Oct 15 05:12 am Oct 15 2:12 am
1259.24 10/15/2017 08:12:48 Oct 15 04:12 am Oct 15 1:12 am
708.86 10/15/2017 07:13:04 Oct 15 03:13 am Oct 15 12:13 am
705.00 10/15/2017 06:11:12 Oct 15 02:11 am Oct 14 11:11 pm
706.00 10/15/2017 05:11:28 Oct 15 01:11 am Oct 14 10:11 pm
710.86 10/15/2017 04:11:44 Oct 15 12:11 am Oct 14 9:11 pm
706.00 10/15/2017 03:12:00 Oct 14 11:12 pm Oct 14 8:12 pm
710.86 10/15/2017 02:12:16 Oct 14 10:12 pm Oct 14 7:12 pm
711.96 10/15/2017 01:12:32 Oct 14 09:12 pm Oct 14 6:12 pm
711.96 10/15/2017 00:12:48 Oct 14 08:12 pm Oct 14 5:12 pm
711.96 10/14/2017 23:13:04 Oct 14 07:13 pm Oct 14 4:13 pm
892.13 10/14/2017 22:11:12 Oct 14 06:11 pm Oct 14 3:11 pm
1290.13 10/14/2017 21:11:28 Oct 14 05:11 pm Oct 14 2:11 pm
1583.38 10/14/2017 20:11:44 Oct 14 04:11 pm Oct 14 1:11 pm
1922.26 10/14/2017 19:12:00 Oct 14 03:12 pm Oct 14 12:12 pm
2845.83 10/14/2017 18:12:16 Oct 14 02:12 pm Oct 14 11:12 am
2855.65 10/14/2017 17:12:32 Oct 14 01:12 pm Oct 14 10:12 am
2855.65 10/14/2017 16:12:48 Oct 14 12:12 pm Oct 14 9:12 am
2885.20 10/14/2017 15:13:04 Oct 14 11:13 am Oct 14 8:13 am
2876.43 10/14/2017 14:11:12 Oct 14 10:11 am Oct 14 7:11 am
2887.40 10/14/2017 13:11:28 Oct 14 09:11 am Oct 14 6:11 am
2868.78 10/14/2017 12:11:44 Oct 14 08:11 am Oct 14 5:11 am
1959.77 10/14/2017 10:12:16 Oct 14 06:12 am Oct 14 3:12 am
1210.74 10/14/2017 09:12:32 Oct 14 05:12 am Oct 14 2:12 am
1210.74 10/14/2017 08:12:48 Oct 14 04:12 am Oct 14 1:12 am
734.15 10/14/2017 07:13:04 Oct 14 03:13 am Oct 14 12:13 am
741.27 10/14/2017 06:11:12 Oct 14 02:11 am Oct 13 11:11 pm
751.16 10/14/2017 05:11:28 Oct 14 01:11 am Oct 13 10:11 pm
737.55 10/14/2017 04:11:44 Oct 14 12:11 am Oct 13 9:11 pm
742.47 10/14/2017 03:12:00 Oct 13 11:12 pm Oct 13 8:12 pm
738.65 10/14/2017 02:12:16 Oct 13 10:12 pm Oct 13 7:12 pm
738.65 10/14/2017 01:12:32 Oct 13 09:12 pm Oct 13 6:12 pm
739.85 10/14/2017 00:12:48 Oct 13 08:12 pm Oct 13 5:12 pm
754.66 10/13/2017 23:13:04 Oct 13 07:13 pm Oct 13 4:13 pm
750.91 10/13/2017 22:11:12 Oct 13 06:11 pm Oct 13 3:11 pm
745.97 10/13/2017 21:11:28 Oct 13 05:11 pm Oct 13 2:11 pm
752.11 10/13/2017 20:11:44 Oct 13 04:11 pm Oct 13 1:11 pm
753.31 10/13/2017 19:12:00 Oct 13 03:12 pm Oct 13 12:12 pm
749.57 10/13/2017 17:12:32 Oct 13 01:12 pm Oct 13 10:12 am
749.57 10/13/2017 16:12:48 Oct 13 12:12 pm Oct 13 9:12 am
749.57 10/13/2017 15:13:04 Oct 13 11:13 am Oct 13 8:13 am
747.15 10/13/2017 14:11:12 Oct 13 10:11 am Oct 13 7:11 am
753.27 10/13/2017 13:11:28 Oct 13 09:11 am Oct 13 6:11 am
759.51 10/13/2017 12:11:44 Oct 13 08:11 am Oct 13 5:11 am
755.87 10/13/2017 11:12:00 Oct 13 07:12 am Oct 13 4:12 am
760.81 10/13/2017 10:12:16 Oct 13 06:12 am Oct 13 3:12 am
766.96 10/13/2017 09:12:32 Oct 13 05:12 am Oct 13 2:12 am
768.26 10/13/2017 08:12:48 Oct 13 04:12 am Oct 13 1:12 am
753.45 10/13/2017 07:13:04 Oct 13 03:13 am Oct 13 12:13 am
759.77 10/13/2017 06:11:12 Oct 13 02:11 am Oct 12 11:11 pm
759.77 10/13/2017 05:11:28 Oct 13 01:11 am Oct 12 10:11 pm
771.41 10/13/2017 02:12:16 Oct 12 10:12 pm Oct 12 7:12 pm
776.36 10/13/2017 01:12:32 Oct 12 09:12 pm Oct 12 6:12 pm
777.76 10/13/2017 00:12:48 Oct 12 08:12 pm Oct 12 5:12 pm
767.87 10/12/2017 23:13:04 Oct 12 07:13 pm Oct 12 4:13 pm
780.56 10/12/2017 22:11:12 Oct 12 06:11 pm Oct 12 3:11 pm
777.01 10/12/2017 21:11:28 Oct 12 05:11 pm Oct 12 2:11 pm
778.51 10/12/2017 20:11:44 Oct 12 04:11 pm Oct 12 1:11 pm
789.83 10/12/2017 19:12:00 Oct 12 03:12 pm Oct 12 12:12 pm
782.91 10/12/2017 18:12:16 Oct 12 02:12 pm Oct 12 11:12 am
789.36 10/12/2017 17:12:32 Oct 12 01:12 pm Oct 12 10:12 am
790.86 10/12/2017 16:12:48 Oct 12 12:12 pm Oct 12 9:12 am
795.83 10/12/2017 15:13:04 Oct 12 11:13 am Oct 12 8:13 am
793.86 10/12/2017 14:11:12 Oct 12 10:11 am Oct 12 7:11 am
772.25 10/12/2017 13:11:28 Oct 12 09:11 am Oct 12 6:11 am
788.97 10/12/2017 11:12:00 Oct 12 07:12 am Oct 12 4:12 am
777.25 10/12/2017 10:12:16 Oct 12 06:12 am Oct 12 3:12 am
768.50 10/12/2017 09:12:32 Oct 12 05:12 am Oct 12 2:12 am
770.50 10/12/2017 08:12:48 Oct 12 04:12 am Oct 12 1:12 am
775.36 10/12/2017 07:13:04 Oct 12 03:13 am Oct 12 12:13 am
780.36 10/12/2017 06:11:12 Oct 12 02:11 am Oct 11 11:11 pm
787.25 10/12/2017 05:11:28 Oct 12 01:11 am Oct 11 10:11 pm
790.25 10/12/2017 04:11:44 Oct 12 12:11 am Oct 11 9:11 pm
783.50 10/12/2017 03:12:00 Oct 11 11:12 pm Oct 11 8:12 pm
780.64 10/12/2017 02:12:16 Oct 11 10:12 pm Oct 11 7:12 pm
784.64 10/12/2017 01:12:32 Oct 11 09:12 pm Oct 11 6:12 pm
785.64 10/12/2017 00:12:48 Oct 11 08:12 pm Oct 11 5:12 pm
780.80 10/11/2017 23:13:04 Oct 11 07:13 pm Oct 11 4:13 pm
786.80 10/11/2017 22:11:12 Oct 11 06:11 pm Oct 11 3:11 pm
783.98 10/11/2017 21:11:28 Oct 11 05:11 pm Oct 11 2:11 pm
791.80 10/11/2017 20:11:44 Oct 11 04:11 pm Oct 11 1:11 pm
795.80 10/11/2017 19:12:00 Oct 11 03:12 pm Oct 11 12:12 pm
799.80 10/11/2017 18:12:16 Oct 11 02:12 pm Oct 11 11:12 am
806.64 10/11/2017 17:12:32 Oct 11 01:12 pm Oct 11 10:12 am
811.64 10/11/2017 16:12:48 Oct 11 12:12 pm Oct 11 9:12 am
806.80 10/11/2017 15:13:04 Oct 11 11:13 am Oct 11 8:13 am
809.98 10/11/2017 14:11:12 Oct 11 10:11 am Oct 11 7:11 am
838.25 10/11/2017 13:11:28 Oct 11 09:11 am Oct 11 6:11 am
1067.36 10/11/2017 12:11:44 Oct 11 08:11 am Oct 11 5:11 am
1079.86 10/11/2017 11:12:00 Oct 11 07:12 am Oct 11 4:12 am
1072.88 10/11/2017 10:12:16 Oct 11 06:12 am Oct 11 3:12 am
1128.72 10/11/2017 09:12:32 Oct 11 05:12 am Oct 11 2:12 am
1135.72 10/11/2017 08:12:48 Oct 11 04:12 am Oct 11 1:12 am
1130.13 10/11/2017 07:13:04 Oct 11 03:13 am Oct 11 12:13 am
1137.55 10/11/2017 06:11:12 Oct 11 02:11 am Oct 10 11:11 pm
1147.55 10/11/2017 05:11:28 Oct 11 01:11 am Oct 10 10:11 pm
1154.55 10/11/2017 04:11:44 Oct 11 12:11 am Oct 10 9:11 pm
1161.55 10/11/2017 03:12:00 Oct 10 11:12 pm Oct 10 8:12 pm
1177.13 10/11/2017 02:12:16 Oct 10 10:12 pm Oct 10 7:12 pm
966.81 10/11/2017 01:12:32 Oct 10 09:12 pm Oct 10 6:12 pm
984.81 10/11/2017 00:12:48 Oct 10 08:12 pm Oct 10 5:12 pm
936.64 10/10/2017 22:11:12 Oct 10 06:11 pm Oct 10 3:11 pm
952.50 10/10/2017 21:11:28 Oct 10 05:11 pm Oct 10 2:11 pm
963.50 10/10/2017 20:11:44 Oct 10 04:11 pm Oct 10 1:11 pm
1243.13 10/10/2017 19:12:00 Oct 10 03:12 pm Oct 10 12:12 pm
1259.72 10/10/2017 18:12:16 Oct 10 02:12 pm Oct 10 11:12 am
1260.55 10/10/2017 17:12:32 Oct 10 01:12 pm Oct 10 10:12 am
1272.55 10/10/2017 16:12:48 Oct 10 12:12 pm Oct 10 9:12 am
1266.98 10/10/2017 15:13:04 Oct 10 11:13 am Oct 10 8:13 am
1293.98 10/10/2017 14:11:12 Oct 10 10:11 am Oct 10 7:11 am
1301.43 10/10/2017 13:11:28 Oct 10 09:11 am Oct 10 6:11 am
1330.43 10/10/2017 12:11:44 Oct 10 08:11 am Oct 10 5:11 am
1350.43 10/10/2017 10:12:16 Oct 10 06:12 am Oct 10 3:12 am
1051.14 10/10/2017 08:12:48 Oct 10 04:12 am Oct 10 1:12 am
907.36 10/10/2017 06:11:12 Oct 10 02:11 am Oct 9 11:11 pm
717.26 10/10/2017 05:11:28 Oct 10 01:11 am Oct 9 10:11 pm
698.54 10/10/2017 04:11:44 Oct 10 12:11 am Oct 9 9:11 pm
692.86 10/10/2017 03:12:00 Oct 9 11:12 pm Oct 9 8:12 pm
702.64 10/10/2017 02:12:16 Oct 9 10:12 pm Oct 9 7:12 pm
696.14 10/10/2017 01:12:32 Oct 9 09:12 pm Oct 9 6:12 pm
695.45 10/10/2017 00:12:48 Oct 9 08:12 pm Oct 9 5:12 pm
695.45 10/09/2017 23:13:04 Oct 9 07:13 pm Oct 9 4:13 pm
699.54 10/09/2017 22:11:12 Oct 9 06:11 pm Oct 9 3:11 pm
699.54 10/09/2017 21:11:28 Oct 9 05:11 pm Oct 9 2:11 pm
694.64 10/09/2017 20:11:44 Oct 9 04:11 pm Oct 9 1:11 pm
703.75 10/09/2017 19:12:00 Oct 9 03:12 pm Oct 9 12:12 pm
698.84 10/09/2017 18:12:16 Oct 9 02:12 pm Oct 9 11:12 am
698.84 10/09/2017 17:12:32 Oct 9 01:12 pm Oct 9 10:12 am
698.04 10/09/2017 16:12:48 Oct 9 12:12 pm Oct 9 9:12 am
693.14 10/09/2017 15:13:04 Oct 9 11:13 am Oct 9 8:13 am
697.34 10/09/2017 14:11:12 Oct 9 10:11 am Oct 9 7:11 am
686.86 10/09/2017 12:11:44 Oct 9 08:11 am Oct 9 5:11 am
695.94 10/09/2017 11:12:00 Oct 9 07:12 am Oct 9 4:12 am

Report - Reports of Related Gauges

Reports give the public a chance to report on river conditions throughout the country as well as log the history of a river.

Reports

When River/Gauge Subject Level Reporter
8y151d08h55m Gauley Below the Meadow [WV] Account of 05/26/09 600 cfs Ryan Groth

Linked Reaches

Click a heading to sort. Hover over a heading for help.
River Name/Section Class Level running? Updated
Gauley [WV] 8 (Middle). Mason Branch to Bucklick Branch III+(IV) 1942 cfs
-874 cfs/hr
R2-
Lower Runnable
01h47m
Gauley [WV] 9 (Lower). Bucklick Branch to Swiss III-IV(V) 2760 cfs
+ 392 cfs/hr
R0-
Lower Runnable
01h00m

Associated Gauges

Disclaimer Data Sources

Gauley at Summersville (cfs) (AW#8515)

1913 cfs 01h17m

MEADOW RIVER AT NALLEN, WV (AW#51285)

28 cfs 00h45m

MEADOW RIVER AT NALLEN, WV (AW#51285)

3.14 ft 00h45m